STARLINK-11455 [DTC]

Last updated on Fri Jan 31 2025 00:02:04 GMT+0000 (Coordinated Universal Time)

1 62463U 24254B 25030.34252043 .00001121 00000+0 93020-5 0 9994 2 62463 42.9993 136.1542 0001210 234.4834 125.5924 15.77855655 5943
UTC large
Height (km)
Speed (km/s)
/
Latitude / Longitude
Inclination (degrees)
Orbital Period (minutes)
Azimuth
Elevation
Range (km)
Doppler Factor

Next 0 passes for location: London (51.5072 / 0.1276)

Sorry there are no passes over London.